RH
29 27 26 25 25 25 27 28 28 29 31 33 35 37 41 43 44 45 49 52 53 54 61 62 64 70 77 81 85 80 76 73 73 71 69 68 69 64 64 63 74 74 74 71 69 72 60 35 38 38 26 21 19 18
38 38 36 33 32 31 33 35 35 34 33 35 37 39 41 44 45 48 49 53 55 54 57 64 68 70 73 83 85 84 81 78 78 78 77 75 77 77 74 69 71 73 68 70 68 62 57 53 42 37 33 28 23 20
41 41 41 40 39 38 39 39 39 39 38 39 39 41 43 46 48 51 51 56 58 57 55 59 62 70 75 79 81 84 86 87 88 87 86 86 85 80 80 78 68 68 69 71 70 60 61 55 51 46 40 34 30 27
45 46 45 44 43 44 43 43 46 47 47 47 45 45 47 51 54 58 57 58 61 63 63 61 66 68 73 72 72 77 84 85 90 93 92 91 87 81 80 77 74 75 75 72 66 59 59 56 53 52 50 46 37 29
49 49 48 48 47 46 44 45 47 50 52 52 53 52 55 59 64 67 63 62 67 70 70 68 65 69 72 76 79 82 83 86 92 95 93 93 87 87 85 82 73 79 76 71 64 65 62 61 60 57 54 54 52 46
49 47 45 44 44 44 44 47 48 52 56 61 62 62 63 67 74 76 75 67 73 77 78 76 73 66 66 70 75 80 83 86 88 93 91 87 87 89 92 82 66 70 73 70 64 69 68 65 66 63 58 56 54 50
54 51 49 43 42 40 42 45 51 55 57 64 67 69 68 70 73 77 76 73 74 80 81 81 79 76 67 70 73 75 79 82 84 85 86 86 85 87 89 81 64 65 64 64 65 65 63 69 64 65 63 61 56 55
53 57 56 51 47 45 45 47 49 48 51 52 54 57 61 63 68 69 71 73 76 78 80 79 77 78 78 76 72 74 75 78 80 81 78 79 81 81 78 63 60 63 64 64 64 66 64 63 63 62 63 64 62 62
44 45 48 49 47 46 46 45 44 43 44 42 45 51 55 62 64 62 65 69 71 76 77 76 75 76 77 77 79 79 78 78 75 75 76 77 76 73 60 57 56 58 59 61 62 63 64 61 57 56 55 56 58 61
46 45 40 41 42 42 42 41 40 38 39 42 43 52 59 60 60 61 63 66 66 68 71 70 73 75 76 78 80 82 85 84 80 71 72 71 64 60 57 59 59 58 58 59 60 62 59 58 60 61 62 62 60 60
46 43 45 46 43 42 41 37 35 30 29 40 46 48 53 52 62 65 65 65 70 68 66 65 69 69 75 80 82 84 83 81 78 74 77 69 62 49 51 52 53 56 57 62 62 60 58 62 64 67 71 72 69 68
43 42 42 46 46 42 39 38 35 32 30 42 49 51 49 51 57 58 62 65 65 63 61 59 62 71 73 80 85 84 85 84 79 73 76 72 54 53 56 58 62 64 62 64 67 68 69 71 68 70 70 70 69 69
44 39 36 35 37 44 41 36 33 30 27 27 42 48 53 56 58 63 64 66 63 60 58 61 67 74 77 79 84 84 84 79 71 76 67 56 63 58 61 69 74 70 69 71 79 79 78 71 70 76 73 74 70 69
48 48 40 38 32 34 41 43 32 28 25 33 42 45 49 54 63 53 48 49 49 50 55 59 63 70 75 81 86 87 87 88 87 84 75 76 67 76 74 74 80 83 81 82 75 69 77 75 72 82 79 72 77 75
41 48 47 38 35 35 38 49 49 42 35 38 48 43 40 34 41 52 55 54 58 65 71 74 76 79 84 87 87 88 90 86 84 74 62 75 86 91 90 83 79 81 78 73 67 73 68 66 66 67 68 71 71 69
44 49 49 49 49 47 45 51 65 63 63 55 45 38 35 39 39 45 48 51 55 57 62 61 67 72 69 70 72 64 66 62 51 62 77 78 70 71 77 78 76 65 62 58 55 57 60 58 51 46 49 52 58 63
60 52 45 50 53 57 64 66 71 76 77 68 42 30 29 30 31 36 38 43 53 64 69 76 77 75 81 87 81 81 73 64 72 76 81 74 66 65 67 61 54 52 48 46 45 40 32 25 24 21 19 22 32 35
67 58 58 55 59 67 73 81 81 83 82 61 46 25 28 26 28 27 29 32 35 38 41 50 54 63 69 75 60 62 62 57 55 54 47 42 42 36 30 26 25 24 22 18 15 14 16 19 20 19 20 19 20 23
72 70 69 68 73 80 82 83 85 86 86 68 54 38 37 33 31 29 33 35 33 38 48 62 69 67 49 37 32 26 27 27 31 31 31 26 24 21 19 21 21 19 20 20 21 22 25 29 31 30 30 33 33 29
86 86 80 74 80 87 89 91 90 86 80 62 55 45 50 49 39 39 36 39 40 53 62 58 48 41 31 24 27 31 30 28 28 28 26 25 26 28 29 27 26 25 26 25 25 26 28 28 29 34 37 43 47 46
96 94 93 93 93 92 89 91 91 84 80 77 52 44 50 47 48 47 46 46 52 53 52 40 34 28 28 29 30 30 32 31 33 36 35 33 31 35 31 28 28 29 28 27 29 30 33 34 35 41 50 55 67 68
98 98 99 99 99 99 99 92 89 92 93 82 68 63 65 60 55 51 57 60 64 51 43 34 32 34 35 35 30 28 31 33 34 36 39 42 43 36 30 32 33 31 29 27 31 36 39 40 43 50 59 66 80 85
99 99 99 99 99 98 97 85 97 91 90 87 82 85 88 83 68 67 65 53 42 30 34 47 47 47 46 35 35 35 30 31 34 36 36 39 38 37 37 32 31 30 28 26 30 36 40 46 53 63 70 81 89 93
99 99 98 98 98 98 95 90 89 88 90 91 92 88 91 85 80 90 82 46 34 41 49 45 48 51 47 44 43 38 30 32 34 35 36 40 39 34 34 31 28 29 30 32 33 38 42 47 59 65 76 84 91 94
99 98 98 98 97 98 94 90 87 91 91 86 92 90 87 86 91 84 54 46 49 38 35 39 45 46 49 54 47 39 34 32 34 35 29 37 46 47 42 38 34 32 34 34 33 38 40 55 69 83 91 95 97 98
98 96 96 96 94 91 86 87 83 76 77 86 89 86 84 89 88 73 54 48 43 40 37 39 51 62 58 51 47 39 31 29 33 38 31 31 32 31 34 38 34 27 32 34 32 33 44 61 83 93 95 98 98 98
98 91 79 72 70 73 86 83 93 95 97 97 90 88 94 96 79 57 45 41 41 43 53 52 53 54 49 42 41 38 35 33 35 36 36 36 33 33 35 36 32 28 28 28 26 29 46 80 92 95 96 98 98 98
97 95 97 90 88 83 85 86 92 90 86 83 80 82 78 71 54 41 42 47 51 50 51 50 48 48 48 45 38 37 36 36 37 39 39 36 34 36 37 36 34 33 33 30 31 46 73 89 93 97 98 97 96 94
76 69 80 89 89 88 82 78 77 74 60 68 72 71 68 57 56 61 50 50 57 55 52 52 48 44 41 38 37 39 41 42 47 47 45 42 40 39 42 42 40 38 35 35 57 82 93 95 97 96 91 87 86 83
65 66 75 72 75 77 57 52 47 51 62 70 77 79 78 72 62 59 62 60 56 54 49 47 40 39 40 42 40 38 41 47 56 71 75 68 64 62 56 48 44 40 42 67 86 97 96 95 96 93 86 79 77 73
79 84 87 83 73 52 45 56 76 83 85 83 78 80 74 65 62 59 53 50 48 42 39 36 34 35 40 42 51 61 69 80 82 78 72 61 57 54 49 45 43 57 78 95 98 98 98 95 91 86 78 72 69 66
82 88 98 98 79 64 65 67 71 75 70 72 71 69 64 62 55 39 33 37 37 36 34 39 40 37 47 56 68 80 80 74 68 57 48 48 49 54 62 71 86 97 98 98 98 98 95 90 87 79 70 67 64 65
68 74 76 74 69 63 62 73 73 70 62 59 52 48 47 48 49 31 33 38 44 47 45 43 49 60 67 80 91 91 88 82 75 74 72 72 74 82 94 98 98 98 98 98 95 92 89 86 79 68 64 63 63 66